EW7034 Weather Reports


Display with metric or nautical units.
time (UTC)temp
F
wind
direction
speed
MPH
gust
MPH
rain 1hr
in
rain 24hr
in
rain mn
in
humidity
%
barometer
mb
20191211111642 39 296 4.0 13.0 0.00 0.43 0.00 85 998.0
20191211110148 39 76 3.0 14.0 0.00 0.43 0.00 84 998.2
20191211104720 39 309 4.0 13.0 0.00 0.45 0.00 83 998.3
20191211103334 39 295 5.0 16.0 0.00 0.45 0.00 83 998.4
20191211101842 38 322 4.0 11.0 0.00 0.45 0.00 85 998.2
20191211100111 37 286 5.0 11.0 0.00 0.45 0.00 86 998.3
20191211094803 38 312 7.0 15.0 0.00 0.46 0.00 86 998.3
20191211093128 37 320 6.0 13.0 0.00 0.46 0.00 86 998.4
20191211091805 37 319 6.0 14.0 0.00 0.46 0.00 87 998.3
20191211090211 38 317 5.0 14.0 0.00 0.46 0.00 86 998.8
20191211084724 38 316 4.0 15.0 0.00 0.53 0.00 86 998.6
20191211083259 37 316 3.0 9.0 0.00 0.53 0.00 86 998.6
20191211081728 38 302 2.0 11.0 0.00 0.53 0.00 85 998.4
20191211080214 38 324 5.0 15.0 0.00 0.53 0.00 85 998.5
20191211074731 38 305 6.0 15.0 0.00 0.56 0.00 86 998.8
20191211073114 38 281 5.0 12.0 0.00 0.56 0.00 85 999.0
20191211071653 38 315 4.0 14.0 0.00 0.56 0.00 84 999.0
20191211070106 38 290 4.0 15.0 0.00 0.56 0.00 84 999.0
20191211064700 38 317 4.0 16.0 0.00 0.63 0.00 84 999.2
20191211063038 38 326 3.0 12.0 0.00 0.63 0.00 83 999.2
20191211061632 38 298 3.0 16.0 0.00 0.63 0.00 83 999.2
20191211051511 40 309 5.0 12.0 0.00 0.65 0.00 82 1000.1
20191211050011 40 306 6.0 15.0 0.00 0.65 0.00 82 1000.3
20191211044515 40 323 7.0 17.0 0.00 0.68 0.00 84 1000.6
20191211043034 40 297 8.0 18.0 0.00 0.68 0.00 83 1000.8
20191211040320 41 300 5.0 17.0 0.00 0.68 0.00 80 1001.2
20191211034816 40 331 4.0 18.0 0.00 0.71 0.00 80 1001.2
20191211033240 39 312 6.0 15.0 0.00 0.71 0.00 83 1001.5
20191211031825 40 314 6.0 12.0 0.00 0.71 0.00 84 1001.8
20191211030125 40 293 6.0 17.0 0.00 0.71 0.00 83 1002.2
20191211024737 40 331 4.0 15.0 0.00 0.71 0.00 84 1002.4
20191211023259 40 312 4.0 12.0 0.00 0.71 0.00 85 1002.5
20191211021804 40 316 8.0 17.0 0.00 0.71 0.00 85 1002.6
20191211020119 40 321 3.0 14.0 0.00 0.71 0.00 85 1002.7
20191211014654 40 325 4.0 16.0 0.00 0.71 0.00 84 1003.0
20191211013123 40 304 6.0 16.0 0.00 0.71 0.00 84 1003.0
20191211011710 40 309 8.0 14.0 0.00 0.71 0.00 83 1003.2
20191211010204 40 317 5.0 16.0 0.00 0.71 0.00 82 1003.4
20191211004542 40 292 4.0 12.0 0.00 0.71 0.00 86 1003.5
20191211003112 40 319 5.0 15.0 0.00 0.71 0.00 85 1003.6
20191211001731 40 346 7.0 16.0 0.00 0.71 0.00 84 1003.7
20191211000138 40 292 7.0 14.0 0.00 0.71 0.00 85 1003.5
20191210234744 40 317 5.0 11.0 0.00 0.71 0.71 86 1003.3
20191210233131 40 295 5.0 14.0 0.00 0.71 0.71 85 1003.2
20191210231639 41 271 7.0 16.0 0.00 0.71 0.71 85 1002.8
20191210230219 41 309 5.0 13.0 0.00 0.71 0.71 83 1002.7
20191210224625 41 297 5.0 13.0 0.00 0.71 0.71 81 1002.4
20191210223041 41 284 7.0 22.0 0.00 0.71 0.71 85 1002.4
20191210221610 41 319 6.0 14.0 0.00 0.71 0.71 84 1002.2
20191210220109 41 78 6.0 14.0 0.00 0.71 0.71 85 1002.1
20191210214612 41 290 8.0 17.0 0.00 0.71 0.71 86 1002.1
20191210213119 41 343 6.0 12.0 0.00 0.71 0.71 87 1002.2
20191210211559 41 306 5.0 13.0 0.00 0.71 0.71 86 1002.1
20191210210045 41 313 6.0 15.0 0.00 0.71 0.71 87 1002.4
20191210204601 41 320 5.0 13.0 0.00 0.71 0.71 88 1001.9
20191210203113 40 306 3.0 13.0 0.00 0.71 0.71 87 1001.8
20191210201528 40 310 5.0 13.0 0.00 0.71 0.71 87 1001.7
20191210200114 41 302 4.0 14.0 0.00 0.71 0.71 87 1001.5
20191210194531 40 311 3.0 14.0 0.00 0.71 0.71 88 1001.3
20191210193028 41 309 8.0 14.0 0.00 0.71 0.71 87 1001.2
20191210191616 41 318 7.0 22.0 0.00 0.71 0.71 86 1001.1
20191210190036 40 342 6.0 12.0 0.00 0.71 0.71 87 1000.6
20191210184622 41 319 5.0 17.0 0.00 0.71 0.71 86 1000.2
20191210183100 41 323 7.0 20.0 0.00 0.71 0.71 85 1000.0
20191210181638 41 304 7.0 17.0 0.00 0.71 0.71 85 999.7
20191210180046 41 300 9.0 20.0 0.00 0.71 0.71 85 999.1
20191210174516 41 302 5.0 18.0 0.00 0.71 0.71 87 998.6
20191210173020 41 292 6.0 14.0 0.00 0.71 0.71 88 998.4
20191210171501 41 318 6.0 15.0 0.01 0.71 0.71 88 998.2
20191210170546 41 335 5.0 17.0 0.01 0.71 0.71 90 997.8
20191210165002 41 308 3.0 25.0 0.02 0.71 0.71 89 997.3
20191210163309 41 309 5.0 14.0 0.03 0.71 0.71 90 996.9
20191210161658 41 317 7.0 13.0 0.03 0.70 0.70 91 996.5
20191210160130 42 315 6.0 16.0 0.04 0.70 0.70 91 995.7
20191210154635 43 322 4.0 16.0 0.02 0.68 0.68 91 994.9
20191210153118 43 288 5.0 22.0 0.03 0.68 0.68 91 994.7
20191210151646 43 313 5.0 16.0 0.04 0.67 0.67 92 994.0
20191210150203 44 317 5.0 20.0 0.05 0.66 0.66 91 993.2
20191210144653 44 313 6.0 16.0 0.08 0.66 0.66 91 993.0
20191210143145 44 294 6.0 18.0 0.10 0.65 0.65 91 992.9
20191210141626 46 284 6.0 17.0 0.09 0.63 0.63 90 993.0
20191210140114 47 314 7.0 19.0 0.09 0.61 0.61 91 992.8
20191210134630 50 319 5.0 16.0 0.11 0.56 0.56 89 992.2
20191210133226 55 279 4.0 18.0 0.11 0.55 0.55 92 990.7
20191210131559 54 284 10.0 22.0 0.12 0.54 0.54 93 990.8
20191210130100 54 319 3.0 17.0 0.11 0.52 0.52 94 991.3
20191210124547 54 323 5.0 22.0 0.12 0.46 0.46 94 991.4
20191210123107 54 298 8.0 21.0 0.13 0.44 0.44 94 991.8
20191210121539 54 312 9.0 30.0 0.13 0.42 0.42 94 992.5
20191210120123 54 252 8.0 23.0 0.13 0.41 0.41 94 992.3
20191210114530 54 92 6.0 23.0 0.07 0.34 0.34 94 993.1
20191210113055 54 327 2.0 18.0 0.05 0.31 0.31 94 993.4